CROCUBE

Last updated on Wed Nov 05 2025 00:03:48 GMT+0000 (Coordinated Universal Time)

1 62394U 24247T 25308.06655222 .00029134 00000+0 91810-3 0 9999 2 62394 44.9760 73.1362 0007040 236.6009 123.4203 15.32424817 48638
UTC large
Height (km)
Speed (km/s)
/
Latitude / Longitude
Inclination (degrees)
Orbital Period (minutes)
Azimuth
Elevation
Range (km)
Doppler Factor

Next 0 passes for location: London (51.5072 / 0.1276)

Sorry there are no passes over London.